M0CJS Weather Reports


Display with metric or nautical units.
time (UTC)temp
F
wind
direction
speed
MPH
gust
MPH
rain 1hr
in
rain 24hr
in
rain mn
in
humidity
%
barometer
mb
20260903022517 63 225 7.0 19.0 0.00 0.08 0.00 92 1015.7
20260903021517 63 225 4.0 10.0 0.00 0.08 0.00 93 1015.6
20260903020517 63 225 4.0 11.0 0.00 0.08 0.00 94 1015.7
20260903015517 63 203 5.0 12.0 0.00 0.08 0.00 94 1015.8
20260903014517 64 225 5.0 10.0 0.00 0.08 0.00 94 1015.8
20260903013517 63 203 6.0 12.0 0.00 0.08 0.00 95 1015.4
20260903012517 63 225 5.0 11.0 0.00 0.08 0.00 95 1015.5
20260903011517 64 225 5.0 13.0 0.00 0.08 0.00 94 1015.9
20260903010517 64 203 8.0 15.0 0.00 0.08 0.00 94 1015.8
20260903005517 64 203 4.0 10.0 0.00 0.08 0.00 94 1015.9
20260903004517 64 203 6.0 12.0 0.00 0.08 0.00 93 1016.2
20260903003517 64 203 6.0 13.0 0.00 0.08 0.00 93 1016.2
20260903002537 64 203 6.0 14.0 0.00 0.08 0.00 93 1016.1
20260903001517 64 203 6.0 13.0 0.00 0.08 0.00 93 1016.2
20260903000517 64 203 6.0 11.0 0.00 0.08 0.00 93 1016.4
20260902235517 64 203 9.0 15.0 0.00 0.08 0.00 93 1016.3
20260902234517 64 203 8.0 17.0 0.00 0.08 0.00 94 1016.3
20260902233517 64 203 7.0 14.0 0.00 0.08 0.00 94 1016.2
20260902232517 64 203 6.0 15.0 0.00 0.08 0.00 94 1016.4
20260902231517 64 203 7.0 16.0 0.00 0.08 0.00 94 1016.5
20260902230516 64 203 5.0 11.0 0.00 0.08 0.00 93 1016.4
20260902225517 64 203 7.0 12.0 0.00 0.08 0.08 93 1016.5
20260902224517 64 225 6.0 12.0 0.00 0.08 0.08 93 1016.7
20260902223517 64 225 4.0 10.0 0.00 0.08 0.08 93 1016.8
20260902222517 65 203 7.0 13.0 0.00 0.08 0.08 93 1016.7
20260902221517 65 203 6.0 13.0 0.00 0.08 0.08 93 1016.7
20260902220517 65 203 7.0 12.0 0.00 0.08 0.08 93 1016.6
20260902215517 65 203 7.0 14.0 0.00 0.08 0.08 94 1016.4
20260902214517 65 203 7.0 11.0 0.00 0.08 0.08 93 1016.3
20260902213517 65 203 6.0 11.0 0.00 0.08 0.08 93 1016.5
20260902212517 65 225 4.0 8.0 0.00 0.08 0.08 91 1016.5
20260902211517 65 248 3.0 8.0 0.00 0.08 0.08 90 1016.5
20260902210517 65 248 3.0 9.0 0.00 0.08 0.08 90 1016.7
20260902205516 65 248 4.0 8.0 0.00 0.08 0.08 92 1016.3
20260902204517 65 248 4.0 9.0 0.00 0.08 0.08 93 1016.5
20260902203517 65 225 7.0 16.0 0.00 0.08 0.08 93 1016.3
20260902202517 65 203 6.0 14.0 0.00 0.08 0.08 94 1016.1
20260902201516 65 203 6.0 15.0 0.00 0.08 0.08 94 1016.2
20260902200516 65 203 8.0 14.0 0.00 0.08 0.08 94 1016.1
20260902195517 65 203 8.0 14.0 0.00 0.08 0.08 94 1015.9
20260902194516 65 203 8.0 15.0 0.00 0.08 0.08 94 1016.0
20260902193517 65 203 5.0 9.0 0.00 0.08 0.08 94 1015.8
20260902192516 66 203 6.0 10.0 0.00 0.08 0.08 94 1015.9
20260902191516 66 203 8.0 13.0 0.00 0.08 0.08 93 1015.8
20260902190536 66 225 8.0 15.0 0.00 0.08 0.08 94 1015.8
20260902185516 66 203 5.0 10.0 0.00 0.08 0.08 94 1015.9
20260902184516 66 203 4.0 7.0 0.00 0.08 0.08 95 1015.7
20260902183516 66 225 4.0 8.0 0.00 0.08 0.08 95 1015.7
20260902182616 66 225 7.0 13.0 0.00 0.08 0.08 95 1015.7
20260902181516 66 203 7.0 13.0 0.00 0.08 0.08 96 1015.6
20260902180516 66 203 7.0 13.0 0.00 0.08 0.08 96 1015.6
20260902175516 65 203 5.0 11.0 0.00 0.08 0.08 96 1015.5
20260902174536 65 203 6.0 14.0 0.00 0.08 0.08 97 1015.6
20260902173516 65 203 8.0 14.0 0.00 0.08 0.08 97 1015.5
20260902172516 65 203 6.0 12.0 0.00 0.08 0.08 97 1015.8
20260902171516 65 225 5.0 10.0 0.00 0.08 0.08 98 1015.8
20260902170516 65 203 6.0 15.0 0.00 0.08 0.08 98 1015.8
20260902165516 65 203 6.0 13.0 0.00 0.08 0.08 98 1015.9
20260902164516 64 180 3.0 9.0 0.00 0.08 0.08 98 1015.9
20260902163516 64 225 5.0 12.0 0.00 0.08 0.08 98 1015.9
20260902162516 64 203 4.0 8.0 0.00 0.08 0.08 98 1015.9
20260902161516 64 203 5.0 10.0 0.00 0.08 0.08 98 1016.0
20260902160516 64 203 6.0 17.0 0.00 0.08 0.08 98 1016.0
20260902155516 64 135 3.0 7.0 0.01 0.08 0.08 98 1016.0
20260902154516 64 203 6.0 12.0 0.01 0.08 0.08 98 1016.0
20260902153516 64 203 5.0 11.0 0.01 0.08 0.08 98 1016.1
20260902152516 64 180 4.0 12.0 0.01 0.08 0.08 98 1016.2
20260902151516 64 158 4.0 16.0 0.01 0.08 0.08 97 1016.2
20260902150516 64 180 5.0 14.0 0.01 0.08 0.08 97 1016.3
20260902145516 64 180 5.0 13.0 0.00 0.07 0.07 97 1016.4
20260902144536 64 180 6.0 15.0 0.01 0.07 0.07 96 1016.5
20260902143536 64 203 7.0 20.0 0.01 0.07 0.07 96 1016.7
20260902142516 64 180 5.0 13.0 0.01 0.07 0.07 96 1016.7
20260902141516 63 203 8.0 16.0 0.02 0.07 0.07 96 1016.8
20260902140516 63 203 7.0 17.0 0.04 0.07 0.07 96 1016.9
20260902135516 63 203 7.0 14.0 0.05 0.07 0.07 96 1017.1
20260902134516 63 203 7.0 19.0 0.04 0.06 0.06 96 1017.3
20260902133516 63 203 5.0 11.0 0.05 0.06 0.06 97 1017.5
20260902132516 63 180 3.0 11.0 0.05 0.06 0.06 96 1017.6
20260902131515 62 158 3.0 7.0 0.04 0.06 0.06 95 1017.7
20260902130516 62 158 3.0 7.0 0.02 0.03 0.03 94 1017.7
20260902125516 62 158 5.0 14.0 0.01 0.02 0.02 93 1017.8
20260902124515 63 158 4.0 9.0 0.01 0.02 0.02 91 1018.1
20260902123516 64 180 4.0 12.0 0.00 0.02 0.02 85 1018.1
20260902122515 64 203 9.0 21.0 0.00 0.02 0.02 82 1018.1
20260902121536 65 180 4.0 10.0 0.00 0.02 0.02 82 1018.3
20260902120516 66 158 4.0 11.0 0.00 0.02 0.02 81 1018.1
20260902115535 67 158 5.0 13.0 0.00 0.02 0.02 79 1018.3
20260902114515 65 180 5.0 16.0 0.00 0.02 0.02 81 1018.6
20260902113516 65 203 7.0 17.0 0.00 0.02 0.02 82 1018.8
20260902112516 65 180 5.0 14.0 0.00 0.02 0.02 83 1018.9
20260902111515 65 203 8.0 16.0 0.00 0.02 0.02 84 1019.1
20260902110515 65 203 6.0 13.0 0.00 0.02 0.02 86 1019.3
20260902105515 65 203 7.0 19.0 0.00 0.02 0.02 82 1019.4
20260902104515 66 203 8.0 16.0 0.00 0.02 0.02 82 1019.6
20260902103515 65 203 7.0 16.0 0.00 0.02 0.02 86 1019.7
20260902102515 64 203 8.0 16.0 0.00 0.02 0.02 86 1019.8
20260902101515 64 203 9.0 15.0 0.00 0.02 0.02 87 1019.9
20260902100515 64 203 8.0 15.0 0.00 0.02 0.02 87 1020.0
20260902095515 63 203 7.0 15.0 0.00 0.02 0.02 89 1020.0
20260902094515 63 203 8.0 20.0 0.00 0.02 0.02 90 1020.0
20260902093515 63 203 7.0 15.0 0.00 0.02 0.02 91 1020.1
20260902092515 63 203 5.0 9.0 0.00 0.02 0.02 93 1020.1
20260902091517 62 203 5.0 12.0 0.00 0.02 0.02 93 1020.1
20260902090517 62 203 5.0 11.0 0.00 0.02 0.02 93 1020.1
20260902085537 62 203 4.0 11.0 0.01 0.02 0.02 94 1020.0
20260902084537 62 203 5.0 12.0 0.01 0.02 0.02 94 1020.3
20260902083517 61 203 5.0 9.0 0.01 0.02 0.02 96 1020.2
20260902082517 60 203 6.0 12.0 0.01 0.02 0.02 95 1020.3
20260902081537 60 203 7.0 14.0 0.01 0.02 0.02 96 1020.3
20260902080537 60 180 2.0 9.0 0.01 0.02 0.02 96 1020.2
20260902075517 60 180 2.0 8.0 0.00 0.01 0.01 96 1020.0
20260902074517 60 180 1.0 5.0 0.00 0.01 0.01 97 1020.2
20260902073537 59 180 1.0 4.0 0.00 0.01 0.01 97 1020.3
20260902072517 59 203 2.0 5.0 0.01 0.01 0.01 97 1020.2
20260902071517 59 135 1.0 4.0 0.01 0.01 0.01 97 1020.0
20260902070537 59 203 1.0 4.0 0.01 0.01 0.01 97 1020.0
20260902065517 59 203 2.0 6.0 0.01 0.01 0.01 96 1019.9
20260902064517 59 225 1.0 3.0 0.01 0.01 0.01 96 1019.9
20260902063517 58 158 1.0 6.0 0.01 0.01 0.01 97 1019.8
20260902062517 58 158 1.0 4.0 0.00 0.00 0.00 96 1019.9
20260902061537 58 180 1.0 4.0 0.00 0.00 0.00 96 1020.0
20260902060517 58 180 1.0 5.0 0.00 0.00 0.00 96 1019.9
20260902055517 58 225 3.0 6.0 0.00 0.00 0.00 95 1019.7
20260902054517 58 203 3.0 7.0 0.00 0.00 0.00 95 1019.6
20260902053517 58 203 4.0 8.0 0.00 0.00 0.00 94 1019.5
20260902052517 58 203 5.0 10.0 0.00 0.00 0.00 94 1019.6
20260902051517 58 203 3.0 6.0 0.00 0.00 0.00 93 1019.7
20260902050537 58 203 3.0 5.0 0.00 0.00 0.00 93 1019.7
20260902045517 58 203 2.0 6.0 0.00 0.00 0.00 92 1019.6
20260902044517 58 203 3.0 8.0 0.00 0.00 0.00 92 1019.8
20260902043617 58 203 3.0 7.0 0.00 0.00 0.00 92 1019.9
20260902042536 58 203 3.0 7.0 0.00 0.00 0.00 92 1019.8
20260902041537 58 203 3.0 7.0 0.00 0.00 0.00 91 1019.8
20260902040536 58 225 3.0 6.0 0.00 0.00 0.00 91 1019.9
20260902035536 58 225 2.0 6.0 0.00 0.00 0.00 91 1019.9
20260902034536 57 203 3.0 5.0 0.00 0.00 0.00 91 1020.0
20260902033516 57 203 1.0 3.0 0.00 0.00 0.00 91 1019.8
20260902032516 57 203 1.0 3.0 0.00 0.00 0.00 90 1019.9
20260902031516 57 0.0 3.0 0.00 0.00 0.00 91 1020.1
20260902030516 57 0.0 0.0 0.00 0.00 0.00 90 1020.2
20260902025556 57 0.0 0.0 0.00 0.00 0.00 91 1020.3
20260902024517 57 0.0 0.0 0.00 0.00 0.00 91 1020.4
20260902023516 57 0.0 1.0 0.00 0.00 0.00 90 1020.5